This demonstration page uses our WeatherBlox Daily Observations layout. Learn more.

Left ArrowRight Arrow

Hourly Observations for December 20, 2015

Temp ( °F °C ) Dew Point ( °F °C ) Humidity (%) Winds ( mph kmh ) Pressure ( in mb ) Visibility ( mi km ) Precip ( " mm )
12:53 am 00:53 Clear 33 0.6 27 -2.8 78 78 Calm 30.48 1032 10 16 0.00 0.00
1:53 am 01:53 Clear 31 -0.6 27 -2.8 85 85 Calm 30.48 1032 10 16 0.00 0.00
2:53 am 02:53 Clear 31 -0.6 26 -3.3 82 82 Calm 30.47 1032 10 16 0.00 0.00
3:53 am 03:53 Clear 32 0 26 -3.3 79 79 Calm 30.47 1032 10 16 0.00 0.00
4:53 am 04:53 Clear 31 -0.6 27 -2.8 85 85 Calm 30.45 1031 10 16 0.00 0.00
5:53 am 05:53 Clear 30 -1.1 27 -2.8 88 88 Calm 30.47 1032 10 16 0.00 0.00
6:53 am 06:53 Clear 29 -1.7 26 -3.3 89 89 Calm 30.49 1032 10 16 0.00 0.00
7:53 am 07:53 Sunny 28 -2.2 25 -3.9 88 88 NE 5 7 30.53 1034 10 16 0.00 0.00
8:53 am 08:53 Sunny 35 1.7 29 -1.7 78 78 Calm 30.51 1033 10 16 0.00 0.00
9:53 am 09:53 Sunny 43 6.1 29 -1.7 58 58 N 5 7 30.53 1034 10 16 0.00 0.00
10:53 am 10:53 Sunny 49 9.4 26 -3.3 41 41 NE 7 11 30.54 1034 10 16 0.00 0.00
11:53 am 11:53 Sunny 52 11.1 18 -7.8 26 26 SE 3 6 30.52 1034 10 16 0.00 0.00
12:53 pm 12:53 Sunny 53 11.7 20 -6.7 27 27 S 7 11 30.49 1033 10 16 0.00 0.00
1:53 pm 13:53 Sunny 54 12.2 20 -6.7 26 26 ESE 6 9 30.47 1032 10 16 0.00 0.00
2:53 pm 14:53 Sunny 55 12.8 22 -5.6 28 28 VRB 6 9 30.42 1030 10 16 0.00 0.00
3:53 pm 15:53 Sunny 55 12.8 23 -5 29 29 SE 10 17 30.41 1030 10 16 0.00 0.00
4:53 pm 16:53 Sunny 53 11.7 25 -3.9 34 34 E 6 9 30.41 1030 10 16 0.00 0.00
5:53 pm 17:53 Clear 52 11.1 25 -3.9 35 35 E 5 7 30.43 1030 10 16 0.00 0.00
6:53 pm 18:53 Clear 50 10 27 -2.8 41 41 E 3 6 30.42 1030 10 16 0.00 0.00
7:53 pm 19:53 Clear 50 10 28 -2.2 43 43 E 6 9 30.42 1030 10 16 0.00 0.00
8:53 pm 20:53 Clear 50 10 27 -2.8 41 41 VRB 6 9 30.40 1030 10 16 0.00 0.00
9:53 pm 21:53 Clear 49 9.4 27 -2.8 43 43 E 3 6 30.41 1030 10 16 0.00 0.00
10:53 pm 22:53 Clear 49 9.4 27 -2.8 43 43 E 5 7 30.39 1029 10 16 0.00 0.00
11:53 pm 23:53 Clear 49 9.4 26 -3.3 41 41 E 6 9 30.39 1029 10 16 0.00 0.00

Powered by AerisWeather